FW9262 Weather Reports


time (UTC)temp
F
wind
direction
speed
knots
gust
knots
rain 1hr
in
rain 24hr
in
rain mn
in
humidity
%
barometer
mb
20260901140952 64 350 0.0 0.0 0.00 0.00 0.00 94 1017.6
20260901140449 63 343 0.0 0.9 0.00 0.00 0.00 94 1017.3
20260901135944 63 344 0.0 0.0 0.00 0.00 0.00 94 1017.6
20260901135438 62 344 0.0 0.9 0.00 0.00 0.00 94 1017.6
20260901134935 62 351 0.0 0.0 0.00 0.00 0.00 94 1017.0
20260901134430 62 349 0.0 0.0 0.00 0.00 0.00 94 1017.3
20260901133930 61 339 0.0 0.0 0.00 0.00 0.00 94 1017.0
20260901133429 61 339 0.0 0.0 0.00 0.00 0.00 94 1017.3
20260901132928 61 341 0.0 0.0 0.00 0.00 0.00 94 1017.3
20260901132423 61 338 0.0 0.0 0.00 0.00 0.00 94 1017.3
20260901131922 61 338 0.0 0.0 0.00 0.00 0.00 94 1017.3
20260901131421 61 336 0.0 0.0 0.00 0.00 0.00 94 1017.3
20260901130918 61 348 0.0 0.0 0.00 0.00 0.00 93 1017.3
20260901130417 61 343 0.0 0.0 0.00 0.00 0.00 93 1017.0
20260901125915 61 339 0.0 0.0 0.00 0.00 0.00 93 1017.0
20260901125414 61 330 0.0 0.0 0.00 0.00 0.00 93 1017.0
20260901124909 61 339 0.0 0.0 0.00 0.00 0.00 93 1017.0
20260901124404 61 339 0.0 0.0 0.00 0.00 0.00 93 1017.0
20260901123859 61 333 0.0 0.0 0.00 0.00 0.00 93 1017.0
20260901123354 61 339 0.0 0.0 0.00 0.00 0.00 93 1017.0
20260901122852 61 340 0.0 0.0 0.00 0.00 0.00 93 1017.0
20260901122347 61 333 0.0 0.0 0.00 0.00 0.00 93 1017.0
20260901121846 61 341 0.0 0.0 0.00 0.00 0.00 93 1017.0
20260901121341 62 341 0.0 0.0 0.00 0.00 0.00 93 1017.0
20260901120836 62 340 0.0 0.0 0.00 0.00 0.00 93 1017.0
20260901120331 62 343 0.0 0.0 0.00 0.00 0.00 93 1017.0
20260901115827 62 339 0.0 0.0 0.00 0.00 0.00 93 1017.0
20260901115321 62 354 0.0 0.0 0.00 0.00 0.00 93 1017.0
20260901114820 62 346 0.0 0.0 0.00 0.00 0.00 93 1017.0
20260901114314 62 340 0.0 0.0 0.00 0.00 0.00 93 1017.0
20260901113813 62 336 0.0 0.0 0.00 0.00 0.00 93 1016.6
20260901113313 62 340 0.0 0.0 0.00 0.00 0.00 93 1017.0
20260901112807 62 340 0.0 0.0 0.00 0.00 0.00 93 1017.0
20260901112305 63 342 0.0 0.0 0.00 0.00 0.00 92 1017.0
20260901111756 62 342 0.0 0.0 0.00 0.00 0.00 92 1017.0
20260901111255 62 339 0.0 0.0 0.00 0.00 0.00 92 1016.6
20260901110754 62 340 0.0 0.0 0.00 0.00 0.00 92 1017.0
20260901110250 63 346 0.0 0.0 0.00 0.00 0.00 92 1017.0
20260901105746 63 346 0.0 0.0 0.00 0.00 0.00 92 1016.6
20260901105246 63 341 0.0 0.0 0.00 0.00 0.00 92 1017.0
20260901104742 63 346 0.0 0.0 0.00 0.00 0.00 92 1017.0
20260901104237 63 350 0.0 0.0 0.00 0.00 0.00 92 1017.0
20260901103737 63 341 0.0 0.0 0.00 0.00 0.00 92 1017.0
20260901103232 63 348 0.0 0.9 0.00 0.00 0.00 92 1017.0
20260901102727 63 350 0.0 0.0 0.00 0.00 0.00 92 1017.3
20260901102227 62 340 0.0 0.0 0.00 0.00 0.00 92 1017.3
20260901101723 62 342 0.0 0.0 0.00 0.00 0.00 92 1017.3
20260901101222 63 340 0.0 0.0 0.00 0.00 0.00 92 1017.0
20260901100716 63 338 0.0 0.0 0.00 0.00 0.00 91 1017.0
20260901100211 63 335 0.0 0.0 0.00 0.00 0.00 91 1017.0
20260901095710 63 338 0.0 0.0 0.00 0.00 0.00 91 1017.0
20260901095207 63 340 0.0 0.0 0.00 0.00 0.00 91 1017.3
20260901094707 64 339 0.0 0.0 0.00 0.00 0.00 91 1017.0
20260901094202 64 338 0.0 0.0 0.00 0.00 0.00 91 1017.0
20260901093657 64 334 0.0 0.0 0.00 0.00 0.00 91 1017.0
20260901093156 64 340 0.0 0.0 0.00 0.00 0.00 91 1017.0
20260901092652 64 338 0.0 0.0 0.00 0.00 0.00 91 1017.0
20260901092148 64 343 0.0 0.0 0.00 0.00 0.00 91 1017.0
20260901091643 64 345 0.0 0.0 0.00 0.00 0.00 91 1017.0
20260901091138 64 337 0.0 0.0 0.00 0.00 0.00 91 1017.3
20260901090633 64 340 0.0 0.0 0.00 0.00 0.00 91 1017.0
20260901090128 64 346 0.0 0.0 0.00 0.00 0.00 91 1017.3
20260901085624 64 349 0.0 0.0 0.00 0.00 0.00 91 1017.0
20260901085119 64 352 0.0 0.0 0.00 0.00 0.00 91 1017.3
20260901084616 64 344 0.0 0.0 0.00 0.00 0.00 91 1017.3
20260901084112 64 341 0.0 0.0 0.00 0.00 0.00 91 1017.0
20260901083612 63 343 0.0 0.0 0.00 0.00 0.00 91 1017.3
20260901083110 64 343 0.0 0.0 0.00 0.00 0.00 91 1017.0
20260901082605 64 341 0.0 0.0 0.00 0.00 0.00 91 1017.0
20260901082101 64 340 0.0 0.0 0.00 0.00 0.00 91 1017.3
20260901081555 64 341 0.0 0.0 0.00 0.00 0.00 90 1017.3
20260901081050 64 334 0.0 0.0 0.00 0.00 0.00 91 1017.3
20260901080549 64 337 0.0 0.0 0.00 0.00 0.00 90 1017.3
20260901080049 64 337 0.0 0.0 0.00 0.00 0.00 90 1017.3
20260901075544 64 337 0.0 0.0 0.00 0.00 0.00 90 1017.3
20260901075043 64 335 0.0 0.0 0.00 0.00 0.00 90 1017.3
20260901074543 64 334 0.0 0.0 0.00 0.00 0.00 90 1017.3
20260901074039 64 334 0.0 0.0 0.00 0.00 0.00 89 1017.3
20260901073535 64 336 0.0 0.0 0.00 0.00 0.00 89 1017.0
20260901073030 65 345 0.0 0.0 0.00 0.00 0.00 89 1017.3
20260901072525 65 346 0.0 0.0 0.00 0.00 0.00 89 1017.6
20260901072020 65 336 0.0 0.0 0.00 0.00 0.00 89 1017.6
20260901071520 65 344 0.0 0.0 0.00 0.00 0.00 89 1017.3
20260901071019 65 345 0.0 0.0 0.00 0.00 0.00 89 1017.3
20260901070514 65 339 0.0 0.0 0.00 0.00 0.00 88 1017.3
20260901070009 65 341 0.0 0.0 0.00 0.00 0.00 88 1017.3
20260901065503 65 347 0.0 0.0 0.00 0.00 0.00 88 1017.3
20260901064958 65 340 0.0 0.0 0.00 0.00 0.00 87 1017.3
20260901064454 65 339 0.0 0.0 0.00 0.00 0.00 87 1017.0
20260901063951 66 340 0.0 0.0 0.00 0.00 0.00 87 1017.0
20260901063448 65 334 0.0 0.0 0.00 0.00 0.00 87 1017.0
20260901062943 66 341 0.0 0.0 0.00 0.00 0.00 86 1017.3
20260901062439 66 338 0.0 0.0 0.00 0.00 0.00 87 1017.0
20260901061935 66 336 0.0 0.0 0.00 0.00 0.00 86 1017.0
20260901061430 66 334 0.0 0.0 0.00 0.00 0.00 86 1016.6
20260901060925 67 335 0.0 0.0 0.00 0.00 0.00 86 1016.6
20260901060421 67 320 0.0 0.0 0.00 0.00 0.00 86 1016.6
20260901055920 67 335 0.0 0.0 0.00 0.00 0.00 86 1017.0
20260901055417 67 330 0.0 0.9 0.00 0.00 0.00 86 1016.6
20260901054913 67 306 0.0 0.0 0.00 0.00 0.00 86 1016.6
20260901054410 67 309 0.0 0.0 0.00 0.00 0.00 86 1016.6
20260901053905 67 325 0.9 0.9 0.00 0.00 0.00 86 1016.6
20260901053401 67 343 0.0 0.0 0.00 0.00 0.00 85 1017.0
20260901052856 67 331 0.0 0.9 0.00 0.00 0.00 85 1016.6
20260901052352 67 336 0.0 0.9 0.00 0.00 0.00 85 1016.6
20260901051850 67 329 0.0 0.9 0.00 0.00 0.00 85 1016.6
20260901051346 67 306 0.9 0.9 0.00 0.00 0.00 85 1016.6
20260901050840 67 338 0.0 0.9 0.00 0.00 0.00 85 1016.6
20260901050336 68 329 0.0 0.9 0.00 0.00 0.00 85 1016.6
20260901045831 68 316 0.9 1.7 0.00 0.00 0.00 85 1016.3
20260901045330 68 252 0.0 0.9 0.00 0.00 0.00 85 1016.6
20260901044826 68 290 0.0 0.9 0.00 0.00 0.00 84 1016.6
20260901044322 68 331 0.9 1.7 0.00 0.00 0.00 84 1016.6
20260901043817 68 293 0.9 1.7 0.00 0.00 0.00 84 1016.3
20260901043313 68 296 1.7 1.7 0.00 0.00 0.00 84 1016.3
20260901042812 68 309 0.9 1.7 0.00 0.00 0.00 84 1016.6
20260901042307 68 269 0.9 1.7 0.00 0.00 0.00 85 1016.3
20260901041802 68 300 0.0 1.7 0.00 0.00 0.00 85 1016.3
20260901041257 68 314 0.0 0.9 0.00 0.00 0.00 85 1016.0
20260901040755 68 344 0.0 0.0 0.00 0.00 0.00 84 1016.0
20260901040252 68 324 0.0 0.9 0.00 0.00 0.00 85 1016.0
20260901035750 68 279 0.9 0.9 0.00 0.00 0.00 85 1016.0
20260901035250 68 345 0.9 0.9 0.00 0.00 0.00 85 1015.6
20260901034748 68 252 0.9 1.7 0.00 0.00 0.00 85 1016.0
20260901034244 68 341 0.0 0.0 0.00 0.00 0.00 85 1015.6
20260901033744 68 341 0.0 0.9 0.00 0.00 0.00 85 1015.6
20260901033243 68 330 0.0 0.9 0.00 0.00 0.00 85 1015.3
20260901032741 68 342 0.0 0.9 0.00 0.00 0.00 85 1015.3
20260901032236 68 346 0.0 0.0 0.00 0.00 0.00 85 1015.3
20260901031726 68 333 0.0 0.9 0.00 0.00 0.00 85 1015.3
20260901031221 68 354 0.0 0.0 0.00 0.00 0.00 85 1015.3
20260901030716 68 339 0.0 0.9 0.00 0.00 0.00 85 1015.3
20260901030211 68 324 0.0 0.9 0.00 0.00 0.00 85 1015.3
20260901025705 68 276 0.9 2.6 0.00 0.00 0.00 85 1015.3
20260901025200 69 306 0.9 0.9 0.00 0.00 0.00 85 1015.3
20260901024659 69 303 0.9 1.7 0.00 0.00 0.00 85 1014.9
20260901024158 69 345 0.0 2.6 0.00 0.00 0.00 85 1015.3
20260901023657 69 248 1.7 2.6 0.00 0.00 0.00 84 1014.9
20260901023152 69 324 1.7 5.2 0.00 0.00 0.00 84 1015.3
20260901022648 69 271 1.7 2.6 0.00 0.00 0.00 84 1015.3
20260901022143 69 259 0.9 2.6 0.00 0.00 0.00 84 1015.3
20260901021638 70 182 2.6 5.2 0.00 0.00 0.00 83 1014.9
20260901021133 70 323 0.0 0.0 0.00 0.00 0.00 83 1015.3
20260901020629 70 305 0.0 1.7 0.00 0.00 0.00 83 1015.3
20260901020124 70 281 1.7 3.5 0.00 0.00 0.00 82 1015.3
20260901015620 70 312 1.7 2.6 0.00 0.00 0.00 81 1015.6
20260901015119 71 272 1.7 2.6 0.00 0.00 0.00 81 1015.3
20260901014614 71 339 0.9 3.5 0.00 0.00 0.00 80 1015.6
20260901014110 71 249 2.6 3.5 0.00 0.00 0.00 80 1015.3
20260901013606 71 218 1.7 3.5 0.00 0.00 0.00 80 1015.3
20260901013102 71 296 2.6 3.5 0.00 0.00 0.00 79 1014.9
20260901012601 71 316 1.7 2.6 0.00 0.00 0.00 79 1015.6
20260901012057 71 334 0.0 3.5 0.00 0.00 0.00 80 1015.3
20260901011553 71 289 3.5 6.1 0.00 0.00 0.00 80 1015.3
20260901011050 72 258 1.7 3.5 0.00 0.00 0.00 79 1015.3
20260901010546 72 297 1.7 5.2 0.00 0.00 0.00 79 1015.3
20260901010045 72 286 2.6 3.5 0.00 0.00 0.00 79 1015.6
20260901005540 73 266 3.5 6.1 0.00 0.00 0.00 78 1015.3
20260901005036 73 341 1.7 1.7 0.00 0.00 0.00 78 1015.6
20260901004535 73 336 0.9 6.1 0.00 0.00 0.00 77 1015.3
20260901004030 74 323 0.9 2.6 0.00 0.00 0.00 76 1014.9
20260901003525 74 334 0.0 2.6 0.00 0.00 0.00 76 1015.3
20260901003023 74 343 0.9 2.6 0.00 0.00 0.00 76 1014.9
20260901002523 74 273 0.9 7.0 0.00 0.00 0.00 76 1014.9
20260901002018 76 280 2.6 5.2 0.00 0.00 0.00 73 1014.9
20260901001513 77 266 3.5 5.2 0.00 0.00 0.00 70 1015.3
20260901001009 77 242 3.5 5.2 0.00 0.00 0.00 69 1015.3
20260901000508 77 285 0.9 2.6 0.00 0.00 0.00 70 1015.3
20260901000003 77 241 3.5 5.2 0.00 0.00 0.00 71 1015.6
20260831235457 77 228 1.7 3.5 0.00 0.00 0.00 70 1015.3
20260831234952 76 210 2.6 3.5 0.00 0.00 0.00 72 1015.6
20260831234447 76 272 2.6 5.2 0.00 0.00 0.00 72 1015.6
20260831233942 77 241 2.6 5.2 0.00 0.00 0.00 72 1015.3
20260831233437 77 264 2.6 6.1 0.00 0.00 0.00 72 1015.6
20260831232933 77 215 1.7 5.2 0.00 0.00 0.00 71 1015.6
20260831232429 77 297 1.7 2.6 0.00 0.00 0.00 70 1015.3
20260831231924 77 320 2.6 5.2 0.00 0.00 0.00 72 1015.3
20260831231420 77 283 0.0 2.6 0.00 0.00 0.00 72 1015.3
20260831230916 78 267 1.7 5.2 0.00 0.00 0.00 72 1014.9
20260831230411 78 318 0.9 2.6 0.00 0.00 0.00 71 1015.3
20260831225905 78 223 2.6 6.1 0.00 0.00 0.00 72 1015.6
20260831225401 78 255 2.6 3.5 0.00 0.00 0.00 71 1015.3
20260831224855 78 27 0.0 7.0 0.00 0.00 0.00 72 1015.6
20260831224350 77 207 4.3 5.2 0.00 0.00 0.00 73 1015.3
20260831223850 77 196 2.6 7.0 0.00 0.00 0.00 73 1015.6
20260831223346 79 264 2.6 3.5 0.00 0.00 0.00 70 1015.6
20260831222843 78 262 2.6 3.5 0.00 0.00 0.00 71 1015.6
20260831222338 77 283 3.5 6.1 0.00 0.00 0.00 73 1015.6
20260831221833 78 281 3.5 5.2 0.00 0.00 0.00 72 1016.0
20260831221329 77 244 4.3 6.1 0.00 0.00 0.00 72 1016.0
20260831220824 78 317 1.7 3.5 0.00 0.00 0.00 71 1016.0
20260831220319 78 254 1.7 6.1 0.00 0.00 0.00 72 1016.0
20260831215814 77 248 3.5 7.0 0.00 0.00 0.00 72 1016.0
20260831215310 77 264 4.3 6.1 0.00 0.00 0.00 72 1016.0
20260831214807 78 231 3.5 6.1 0.00 0.00 0.00 71 1016.0
20260831214304 78 225 1.7 6.1 0.00 0.00 0.00 71 1016.0
20260831213759 79 221 1.7 7.0 0.00 0.00 0.00 70 1016.0
20260831213255 80 216 2.6 3.5 0.00 0.00 0.00 68 1016.0
20260831212750 78 287 1.7 3.5 0.00 0.00 0.00 72 1016.0
20260831212247 79 327 1.7 5.2 0.00 0.00 0.00 71 1016.0
20260831211744 80 299 1.7 7.0 0.00 0.00 0.00 70 1016.3
20260831211240 79 266 1.7 6.1 0.00 0.00 0.00 70 1016.3
20260831210735 79 162 3.5 7.0 0.00 0.00 0.00 69 1016.3
20260831210231 79 274 2.6 6.1 0.00 0.00 0.00 69 1016.3
20260831205730 79 309 1.7 5.2 0.00 0.00 0.00 70 1016.3
20260831205226 79 213 1.7 6.1 0.00 0.00 0.00 70 1016.0
20260831204721 79 234 2.6 5.2 0.00 0.00 0.00 69 1016.6
20260831204220 78 281 1.7 5.2 0.00 0.00 0.00 70 1016.0
20260831203714 79 295 1.7 5.2 0.00 0.00 0.00 70 1016.3
20260831203213 79 256 3.5 6.1 0.00 0.00 0.00 70 1016.3
20260831202712 79 238 1.7 7.0 0.00 0.00 0.00 70 1016.6
20260831202207 80 293 0.9 6.1 0.00 0.00 0.00 69 1016.3
20260831201706 79 276 1.7 3.5 0.00 0.00 0.00 69 1016.3
20260831201201 78 212 2.6 7.0 0.00 0.00 0.00 70 1016.3
20260831200657 79 272 2.6 7.0 0.00 0.00 0.00 69 1016.6
20260831200156 79 230 2.6 3.5 0.00 0.00 0.00 69 1016.6
20260831195652 80 147 0.9 5.2 0.00 0.00 0.00 69 1016.6
20260831195147 80 319 1.7 2.6 0.00 0.00 0.00 69 1016.3
20260831194642 80 240 2.6 5.2 0.00 0.00 0.00 69 1016.3
20260831194138 80 216 1.7 2.6 0.00 0.00 0.00 69 1016.3
20260831193632 80 224 2.6 5.2 0.00 0.00 0.00 68 1017.0
20260831193127 80 316 0.9 3.5 0.00 0.00 0.00 68 1017.0
20260831192622 80 269 1.7 6.1 0.00 0.00 0.00 68 1016.6
20260831192118 80 338 1.7 2.6 0.00 0.00 0.00 69 1016.6
20260831191614 80 274 0.9 1.7 0.00 0.00 0.00 69 1016.6
20260831191109 80 214 1.7 2.6 0.00 0.00 0.00 68 1017.0
20260831190604 80 253 4.3 7.0 0.00 0.00 0.00 68 1016.6
20260831185559 80 319 2.6 5.2 0.00 0.00 0.00 67 1017.0
20260831185054 79 326 0.0 1.7 0.00 0.00 0.00 70 1016.6
20260831184554 80 307 1.7 5.2 0.00 0.00 0.00 69 1016.6
20260831184050 79 354 0.9 3.5 0.00 0.00 0.00 70 1016.6
20260831183549 78 286 2.6 3.5 0.00 0.00 0.00 71 1016.6
20260831183048 78 308 1.7 6.1 0.00 0.00 0.00 72 1016.6
20260831182543 78 234 2.6 5.2 0.00 0.00 0.00 72 1016.6
20260831182039 79 332 0.9 5.2 0.00 0.00 0.00 72 1017.0
20260831181538 78 296 0.9 2.6 0.00 0.00 0.00 72 1017.0
20260831181038 79 332 1.7 3.5 0.00 0.00 0.00 70 1017.0
20260831180534 78 274 0.9 5.2 0.00 0.00 0.00 72 1017.0
20260831180028 78 273 1.7 2.6 0.00 0.00 0.00 72 1016.6
20260831175523 78 224 0.9 3.5 0.00 0.00 0.00 73 1016.6
20260831175020 78 287 1.7 2.6 0.00 0.00 0.00 72 1017.0
20260831174515 78 223 1.7 2.6 0.00 0.00 0.00 71 1017.0
20260831174014 78 281 1.7 3.5 0.00 0.00 0.00 72 1016.6
20260831173513 78 335 0.9 3.5 0.00 0.00 0.00 73 1017.0
20260831173010 78 307 1.7 5.2 0.00 0.00 0.00 73 1016.6
20260831172504 77 344 0.9 2.6 0.00 0.00 0.00 73 1017.0
20260831171959 77 254 3.5 5.2 0.00 0.00 0.00 73 1017.0
20260831171455 77 306 2.6 5.2 0.00 0.00 0.00 73 1016.6
20260831170952 77 245 1.7 2.6 0.00 0.00 0.00 73 1017.0
20260831170448 76 234 0.9 1.7 0.00 0.00 0.00 75 1016.6
20260831165944 76 331 1.7 2.6 0.00 0.00 0.00 75 1016.6
20260831165440 76 338 0.9 1.7 0.00 0.00 0.00 75 1016.6
20260831164937 75 301 0.9 1.7 0.00 0.00 0.00 77 1016.6
20260831164432 75 292 1.7 2.6 0.00 0.00 0.00 77 1016.6
20260831163927 76 123 1.7 5.2 0.00 0.00 0.00 75 1016.3
20260831163422 77 335 0.9 2.6 0.00 0.00 0.00 74 1016.3
20260831162921 76 10 0.0 1.7 0.00 0.00 0.00 73 1016.3
20260831162417 76 338 0.9 2.6 0.00 0.00 0.00 73 1016.3
20260831161915 76 351 0.0 0.9 0.00 0.00 0.00 73 1016.3
20260831161412 77 73 1.7 3.5 0.00 0.00 0.00 73 1016.3
20260831160907 77 82 0.9 1.7 0.00 0.00 0.00 72 1016.3
20260831160402 78 19 0.9 1.7 0.00 0.00 0.00 71 1016.6
20260831155857 78 1 0.9 1.7 0.00 0.00 0.00 69 1016.3
20260831155356 77 325 0.0 1.7 0.00 0.00 0.00 72 1016.3
20260831154852 79 351 0.0 1.7 0.00 0.00 0.00 69 1016.3
20260831154349 78 348 0.9 0.9 0.00 0.00 0.00 69 1016.3
20260831153846 78 306 0.0 0.9 0.00 0.00 0.00 69 1016.3
20260831153343 77 356 0.9 1.7 0.00 0.00 0.00 72 1016.3
20260831152839 78 352 0.0 1.7 0.00 0.00 0.00 71 1016.3
20260831152334 78 346 0.9 0.9 0.00 0.00 0.00 70 1016.3
20260831151829 78 347 0.0 0.0 0.00 0.00 0.00 71 1016.0
20260831151328 76 4 0.0 0.9 0.00 0.00 0.00 75 1016.3
20260831150824 77 330 0.0 0.9 0.00 0.00 0.00 73 1016.3
20260831150319 78 33 0.9 0.9 0.00 0.00 0.00 72 1016.0
20260831145818 77 359 0.0 0.0 0.00 0.00 0.00 74 1016.0
20260831145315 75 350 0.0 0.0 0.00 0.00 0.00 76 1016.0
20260831144810 75 349 0.0 0.9 0.00 0.00 0.00 77 1016.0
20260831144306 74 3 0.9 0.9 0.00 0.00 0.00 78 1016.0
20260831143806 73 3 0.0 0.9 0.00 0.00 0.00 78 1016.0
20260831143301 72 2 0.9 0.9 0.00 0.00 0.00 79 1016.0
20260831142756 71 356 0.0 0.9 0.00 0.00 0.00 81 1016.0
20260831142252 70 351 0.0 0.0 0.00 0.00 0.00 85 1016.0
20260831141751 69 358 0.0 0.0 0.00 0.00 0.00 88 1015.6